Lid_Strength_Index
4 5 5 5 5 5 5 5 5 4 4 4 4 4 4 4 4 8 11 8 6 2 4 6 5 6 6 6 4 4 12 13 12 12 10 7 8 6 5 7 6 5 5 4 2
5 6 6 5 5 5 5 5 5 5 5 4 4 4 4 4 9 11 6 3 2 3 7 8 8 5 8 6 6 8 12 11 8 8 9 8 7 7 8 8 7 7 4 3 3
6 6 6 6 6 6 5 5 5 5 4 4 4 4 4 6 13 12 5 2 2 4 6 5 4 4 7 6 7 8 11 9 7 7 7 8 8 6 8 9 7 8 6 4 4
6 6 6 6 6 6 5 5 5 5 4 4 4 4 4 9 16 9 4 3 2 4 5 4 5 7 9 10 7 10 8 7 7 6 7 9 7 8 7 8 6 6 4 4 5
7 7 6 6 6 6 5 5 5 5 4 4 4 4 8 12 12 7 4 4 6 3 4 5 6 7 9 9 8 10 9 7 6 6 7 7 8 8 8 7 5 4 5 5 5
7 7 6 6 6 6 5 5 5 4 4 5 4 4 10 15 7 6 6 6 5 4 4 4 5 5 8 8 9 8 8 7 6 7 7 9 8 8 7 6 7 5 5 5 5
7 7 6 6 6 6 6 5 5 5 5 5 4 6 10 11 6 6 5 5 3 2 4 3 3 5 6 8 6 7 10 8 8 8 9 7 10 10 7 7 8 7 7 6 4
7 7 7 7 6 6 6 5 5 6 5 5 4 9 13 6 6 6 5 4 2 1 2 1 2 5 6 6 8 10 10 13 9 8 9 9 14 9 6 7 8 8 8 7 7
7 7 7 7 6 6 5 5 6 7 6 5 9 11 14 6 9 7 5 5 2 2 3 2 3 6 7 10 12 11 15 14 12 8 9 10 13 9 7 7 7 8 7 7 7
7 7 7 7 6 6 6 7 8 9 10 8 10 14 12 12 9 8 5 3 5 5 6 7 7 10 10 12 17 15 15 13 14 11 10 11 12 9 8 7 8 7 7 7 7
7 7 7 6 6 6 10 15 17 18 14 16 16 15 13 10 8 7 5 5 5 7 11 9 11 14 12 11 12 13 14 15 12 10 11 12 12 10 8 8 8 8 7 7 7
7 7 7 7 6 7 12 15 16 15 18 14 13 13 11 10 11 9 6 8 9 11 10 13 13 10 9 10 12 13 14 14 12 10 11 12 12 10 9 9 8 8 7 8 8
7 7 7 6 7 11 14 14 11 12 17 17 16 15 13 11 11 10 8 9 10 11 11 16 12 10 10 12 13 13 14 14 14 11 10 12 14 12 9 8 8 7 7 7 8
7 7 7 7 13 13 15 12 11 13 25 20 17 14 13 11 13 9 8 9 11 12 12 13 11 10 11 12 13 14 11 11 13 14 17 12 19 14 12 10 9 8 8 7 7
7 7 7 9 14 15 13 11 12 16 29 19 17 12 13 13 12 12 9 10 13 13 13 14 13 13 13 13 13 13 10 11 12 14 14 15 17 16 13 14 14 14 13 12 11
7 7 8 12 13 13 12 15 16 24 29 21 18 17 16 15 14 12 12 10 11 13 13 14 12 12 12 11 13 12 12 13 14 14 19 16 16 18 17 16 15 14 14 13 12
7 7 10 12 16 12 13 17 24 28 22 25 20 18 17 17 15 15 15 15 15 19 20 15 14 12 11 13 11 12 15 19 20 20 20 16 17 16 14 13 14 14 14 14 12
7 7 10 11 12 13 16 21 29 30 29 20 19 18 20 17 16 16 17 19 14 14 20 20 19 14 11 13 14 14 15 20 23 22 19 16 19 17 13 12 12 11 11 12 12
8 13 13 12 12 15 19 28 27 28 21 20 20 23 24 18 18 18 20 20 15 13 17 18 20 13 12 12 13 14 17 15 18 23 20 19 16 14 13 12 12 12 11 11 12
14 15 15 12 14 17 23 24 27 21 18 19 25 23 29 25 21 21 20 17 16 14 12 13 20 15 13 12 12 14 14 17 18 24 24 20 19 18 15 14 13 13 13 12 11
15 19 15 13 16 20 26 29 28 20 18 19 22 27 22 25 25 22 20 17 17 16 14 13 16 17 14 13 14 14 15 16 16 18 21 22 20 16 15 13 13 13 13 12 12
17 23 15 15 23 30 29 28 19 19 18 19 20 20 21 21 23 22 20 18 16 17 17 13 14 19 15 13 12 13 15 16 19 19 19 18 20 14 12 12 12 12 12 11 11
20 21 15 16 26 29 23 25 21 19 18 19 20 19 18 20 24 19 21 15 15 16 17 13 20 25 21 17 14 14 13 13 15 16 18 20 20 14 12 12 12 12 12 12 12
21 24 22 20 22 24 25 28 25 18 18 17 18 18 20 21 22 23 19 16 15 15 13 13 17 20 21 19 16 14 14 13 15 20 18 18 17 14 13 14 14 13 12 12 12
23 24 23 24 25 23 24 24 24 24 19 17 19 19 21 24 22 24 22 18 16 15 16 18 24 20 17 18 17 15 15 14 14 15 17 16 16 14 14 14 14 13 13 13 13
20 21 22 27 22 23 22 26 21 20 20 21 22 19 20 22 21 23 19 20 20 17 18 17 24 22 25 19 19 18 16 15 14 13 13 13 15 14 14 15 15 14 13 13 13
17 17 19 20 22 23 24 23 21 19 18 17 18 19 20 19 18 18 18 17 17 18 21 22 26 28 28 26 24 26 21 17 16 15 15 16 14 14 15 14 14 14 13 13 13